Weather History for Morrisville, VT

Change the Weather History Date:

Sunday, March 16, 2014

  Actual Average Record
Temperature  
Mean Temperature 11 °F 28 °F  
Max Temperature 24 °F 39 °F 57 °F (2003)
Min Temperature -3 °F 18 °F -3 °F (2014)
Degree Days  
Heating Degree Days 54 36  
Month to date heating degree days 771 628  
Since 1 July heating degree days 6825 6588  
Cooling Degree Days 0 0  
Month to date cooling degree days 0 0  
Year to date cooling degree days 0 0  
Moisture  
Dew Point 2 °F    
Average Humidity 59    
Maximum Humidity 74    
Minimum Humidity 44    
Precipitation  
Precipitation T in 0.06 in 0.23 in (2007)
Month to date precipitation 1.06 0.73  
Year to date precipitation 5.66 5.01  
Sea Level Pressure  
Sea Level Pressure 30.11 in    
Wind  
Wind Speed 8 mph (NW)    
Max Wind Speed 18 mph    
Max Gust Speed 28 mph    
Visibility 7 miles    
Events Snow    
T = Trace of Precipitation, MM = Missing Value Source: NWS Daily Summary

Daily Weather History Graph

Daily Weather History Graph

Search for Another Location

Airport:

Trip Planner

Search our weather history database for the weather conditions in past years. The results will help you decide how hot, cold, wet, or windy it might be!

Date:

Astronomy

Mar. 16, 2014 Rise Set
Actual Time 7:01 AM EDT 6:57 PM EDT
Civil Twilight 6:32 AM EDT 7:26 PM EDT
Nautical Twilight 5:58 AM EDT 8:00 PM EDT
Astronomical Twilight 5:23 AM EDT 8:35 PM EDT
Moon 7:14 PM EDT (3/16) 6:42 AM EDT (3/16)
Length of Visible Light 12h 54m
Length of Day
11h 56m
Full, 100% of the Moon is Illuminated
Mar 16
Full
Mar 16
Full
Mar 23
Last Quarter
Mar 30
New
Apr 7
First Quarter

Hourly Weather History & Observations

Time (EDT) Temp. Windchill Dew Point Humidity Pressure Visibility Wind Dir Wind Speed Gust Speed Precip Events Conditions
12:04 AM 26.1 °F 18.4 °F 18.0 °F 71% 29.89 in 4.0 mi Variable 6.9 mph - 0.00 in Snow Light Snow
12:40 AM 25.0 °F 16.3 °F 17.1 °F 72% 29.90 in 2.5 mi NNW 8.1 mph 16.1 mph 0.00 in Snow Light Snow
12:54 AM 24.1 °F 13.7 °F 17.1 °F 75% 29.94 in 2.5 mi NNW 10.4 mph 20.7 mph 0.00 in Snow Light Snow
1:09 AM 24.1 °F 15.2 °F 15.1 °F 69% 29.92 in 4.0 mi NW 8.1 mph 19.6 mph 0.00 in Snow Light Snow
1:28 AM 21.9 °F 10.4 °F 10.9 °F 63% 29.94 in 9.0 mi NW 11.5 mph 23.0 mph 0.00 in   Overcast
1:54 AM 21.0 °F 10.6 °F 10.0 °F 63% 29.99 in 10.0 mi NW 9.2 mph 19.6 mph 0.00 in   Overcast
2:54 AM 19.0 °F 7.5 °F 8.1 °F 62% 30.01 in 10.0 mi NNW 10.4 mph - N/A   Overcast
3:54 AM 17.1 °F 5.0 °F 7.0 °F 65% 30.03 in 7.0 mi NW 10.4 mph 18.4 mph 0.00 in   Overcast
4:06 AM 17.1 °F 5.8 °F 7.0 °F 65% 30.00 in 3.0 mi NW 9.2 mph 18.4 mph 0.00 in Snow Light Snow
4:14 AM 17.1 °F 6.6 °F 7.0 °F 65% 30.01 in 2.5 mi NW 8.1 mph - 0.00 in Snow Light Snow
4:32 AM 16.0 °F 10.4 °F 8.1 °F 71% 30.01 in 3.0 mi Variable 3.5 mph - 0.00 in Snow Light Snow
4:40 AM 16.0 °F 10.4 °F 8.1 °F 71% 30.01 in 2.0 mi NW 3.5 mph - 0.00 in Snow Light Snow
4:51 AM 15.8 °F 7.2 °F 8.6 °F 73% 30.02 in 1.8 mi North 5.8 mph - 0.00 in Snow Light Snow
4:54 AM 16.0 °F 7.4 °F 8.1 °F 71% 30.06 in 2.0 mi NNW 5.8 mph - 0.00 in Snow Light Snow
5:12 AM 15.1 °F 0.5 °F 6.1 °F 68% 30.03 in 1.2 mi NW 13.8 mph 21.9 mph 0.00 in Snow Light Snow
5:37 AM 14.0 °F 1.2 °F 5.0 °F 67% 30.05 in 3.0 mi NW 10.4 mph - 0.00 in Snow Light Snow
5:54 AM 14.0 °F -0.8 °F 3.0 °F 62% 30.10 in 6.0 mi NW 13.8 mph 24.2 mph 0.00 in Snow Blowing Snow
6:54 AM 12.0 °F - 1.0 °F 61% 30.13 in 10.0 mi North - - N/A   Overcast
7:54 AM 12.0 °F 2.7 °F 1.0 °F 61% 30.12 in 9.0 mi North 5.8 mph - N/A   Overcast
8:49 AM 10.4 °F 0.8 °F 1.4 °F 67% 30.14 in 5.0 mi WNW 5.8 mph - 0.00 in Snow Light Snow
8:54 AM 10.9 °F -4.7 °F -0.0 °F 61% 30.19 in 5.0 mi WNW 13.8 mph 20.7 mph 0.00 in Snow Light Snow
9:54 AM 10.9 °F -3.4 °F -2.0 °F 56% 30.15 in 6.0 mi WNW 11.5 mph 18.4 mph 0.00 in   Haze
10:54 AM 12.0 °F -2.7 °F -4.0 °F 49% 30.22 in 9.0 mi WNW 12.7 mph 21.9 mph 0.00 in   Overcast
11:54 AM 12.0 °F 1.5 °F -2.0 °F 53% 30.23 in 7.0 mi WNW 6.9 mph 21.9 mph 0.00 in   Overcast
12:54 PM 12.9 °F 5.2 °F -2.9 °F 49% 30.22 in 10.0 mi Variable 4.6 mph - N/A   Overcast
1:54 PM 14.0 °F 3.9 °F -2.9 °F 47% 30.22 in 10.0 mi NW 6.9 mph - N/A   Overcast
2:54 PM 14.0 °F -0.2 °F -2.0 °F 49% 30.22 in 10.0 mi NNW 12.7 mph - N/A   Overcast
3:54 PM 14.0 °F 5.1 °F -4.0 °F 45% 30.22 in 10.0 mi WNW 5.8 mph - N/A   Overcast
4:54 PM 15.1 °F 1.8 °F -2.9 °F 45% 30.23 in 10.0 mi NW 11.5 mph 18.4 mph N/A   Overcast
5:54 PM 14.0 °F 1.2 °F -5.1 °F 43% 30.24 in 10.0 mi WNW 10.4 mph - N/A   Mostly Cloudy
6:54 PM 10.9 °F - -6.0 °F 47% 30.24 in 10.0 mi Calm Calm - N/A   Clear
7:54 PM 3.0 °F -6.4 °F -7.1 °F 63% 30.25 in 10.0 mi NW 4.6 mph - N/A   Clear
8:54 PM 3.9 °F -6.9 °F -7.1 °F 60% 30.27 in 10.0 mi NW 5.8 mph - N/A   Clear
9:54 PM 5.0 °F -6.9 °F -9.9 °F 50% 30.27 in 10.0 mi NW 6.9 mph - 0.00 in   Clear
10:54 PM 6.1 °F -6.8 °F -9.9 °F 48% 30.27 in 10.0 mi NW 8.1 mph - N/A   Clear
11:54 PM 5.0 °F -2.1 °F -9.9 °F 50% 30.26 in 10.0 mi Variable 3.5 mph - N/A   Clear